Weather History for Palma de Mallorca, Spain

Change the Weather History Date:

Tuesday, January 22, 2013

  Actual Average Record
Temperature  
Mean Temperature 45 °F -  
Max Temperature 57 °F 57 °F 68 °F (1997)
Min Temperature 33 °F 39 °F 28 °F (2000)
Degree Days  
Heating Degree Days 20    
Moisture  
Dew Point 38 °F    
Average Humidity 67    
Maximum Humidity 93    
Minimum Humidity 29    
Precipitation  
Precipitation 0.16 in 0.05 in - ()
Sea Level Pressure  
Sea Level Pressure 29.78 in    
Wind  
Wind Speed 10 mph ()    
Max Wind Speed 40 mph    
Max Gust Speed 59 mph    
Visibility 6.8 miles    
Events Rain , Thunderstorm    
Averages and records for this station are not official NWS values.
T = Trace of Precipitation, MM = Missing Value Source: Averaged Metar Reports

Daily Weather History Graph

Daily Weather History Graph

Search for Another Location

Airport:

Trip Planner

Search our weather history database for the weather conditions in past years. The results will help you decide how hot, cold, wet, or windy it might be!

Date:

Astronomy

Jan. 22, 2013 Rise Set
Actual Time 8:04 AM CET 5:57 PM CET
Civil Twilight 7:35 AM CET 6:26 PM CET
Nautical Twilight 7:02 AM CET 6:59 PM CET
Astronomical Twilight 6:30 AM CET 7:31 PM CET
Moon 2:09 PM CET (1/22) 4:12 AM CET (1/22)
Length of Visible Light 10h 51m
Length of Day
9h 53m
Waxing Gibbous, 80% of the Moon is Illuminated
Jan 22
Waxing Gibbous
Jan 27
Full
Feb 3
Last Quarter
Feb 10
New
Feb 17
First Quarter

Hourly Weather History & Observations

Time (CET) Temp. Windchill Dew Point Humidity Pressure Visibility Wind Dir Wind Speed Gust Speed Precip Events Conditions
12:00 AM 51.8 °F - 33.8 °F 50% 29.86 in 6.2 mi NW 8.1 mph - N/A   Partly Cloudy
12:30 AM 51.8 °F - 33.8 °F 50% 29.86 in 6.2 mi NNW 6.9 mph - N/A   Partly Cloudy
1:00 AM 50 °F - 28 °F 29% 29.89 in 16 mi WNW 5.8 mph - -   Scattered Clouds
1:00 AM 51.8 °F - 32.0 °F 47% 29.89 in 6.2 mi WNW 6.9 mph - N/A   Partly Cloudy
1:30 AM 50.0 °F - 32.0 °F 50% 29.86 in 6.2 mi WNW 5.8 mph - N/A   Partly Cloudy
2:00 AM 48.2 °F - 33.8 °F 58% 29.86 in 6.2 mi WNW 6.9 mph - N/A   Partly Cloudy
2:30 AM 48.2 °F - 33.8 °F 58% 29.86 in 6.2 mi WNW 6.9 mph - N/A   Partly Cloudy
3:00 AM 48.2 °F - 33.8 °F 58% 29.86 in 6.2 mi West 4.6 mph - N/A   Partly Cloudy
3:30 AM 48.2 °F - 33.8 °F 58% 29.86 in 6.2 mi West 6.9 mph - N/A   Partly Cloudy
4:00 AM 46.4 °F 45.2 °F 33.8 °F 62% 29.86 in 6.2 mi SW 3.5 mph - N/A   Partly Cloudy
4:30 AM 39.2 °F - 32.0 °F 75% 29.86 in 6.2 mi Calm Calm - N/A   Partly Cloudy
5:00 AM 37.4 °F - 32.0 °F 81% 29.86 in 6.2 mi Calm Calm - N/A   Partly Cloudy
5:30 AM 37.4 °F - 32.0 °F 81% 29.86 in 6.2 mi Calm Calm - N/A   Partly Cloudy
6:00 AM 35.6 °F - 32.0 °F 87% 29.86 in 6.2 mi Calm Calm - N/A   Partly Cloudy
6:30 AM 37.4 °F 34.9 °F 32.0 °F 81% 29.86 in 6.2 mi ENE 3.5 mph - N/A   Partly Cloudy
7:00 AM 34 °F - 29 °F 75% 29.87 in 12 mi Calm Calm - -   Scattered Clouds
7:00 AM 35.6 °F - 32.0 °F 87% 29.86 in 6.2 mi ENE 1.2 mph - N/A   Partly Cloudy
7:30 AM 35.6 °F - 32.0 °F 87% 29.86 in 6.2 mi NE 2.3 mph - N/A   Partly Cloudy
8:00 AM 35.6 °F - 32.0 °F 87% 29.86 in 6.2 mi ENE 2.3 mph - N/A   Partly Cloudy
8:30 AM 35.6 °F - 32.0 °F 87% 29.86 in 6.2 mi NE 1.2 mph - N/A   Partly Cloudy
9:00 AM 35.6 °F - 32.0 °F 87% 29.86 in 6.2 mi ENE 1.2 mph - N/A   Partly Cloudy
9:30 AM 37.4 °F - 35.6 °F 93% 29.86 in 6.2 mi Calm Calm - N/A   Scattered Clouds
10:00 AM 41.0 °F - 37.4 °F 87% 29.86 in 6.2 mi Variable 1.2 mph - N/A   Scattered Clouds
10:30 AM 44.6 °F - 41.0 °F 87% 29.86 in 6.2 mi Calm Calm - N/A   Scattered Clouds
11:00 AM 53.6 °F - 39.2 °F 58% 29.86 in 6.2 mi West 23.0 mph - N/A   Scattered Clouds
11:30 AM 55.4 °F - 39.2 °F 54% 29.86 in 6.2 mi WSW 23.0 mph - N/A   Scattered Clouds
12:00 PM 55.4 °F - 39.2 °F 54% 29.86 in 6.2 mi WSW 23.0 mph - N/A   Scattered Clouds
12:30 PM 55.4 °F - 39.2 °F 54% 29.83 in 6.2 mi WSW 21.9 mph 33.4 mph N/A   Scattered Clouds
1:00 PM 54 °F - 36 °F 38% 29.83 in 19 mi WSW 24.2 mph - -   Partly Cloudy
1:00 PM 55.4 °F - 39.2 °F 54% 29.83 in 6.2 mi WSW 23.0 mph - N/A   Scattered Clouds
1:30 PM 55.4 °F - 39.2 °F 54% 29.80 in 6.2 mi West 26.5 mph 38.0 mph N/A   Scattered Clouds
2:00 PM 55.4 °F - 41.0 °F 58% 29.80 in 6.2 mi West 26.5 mph - N/A   Scattered Clouds
2:30 PM 55.4 °F - 41.0 °F 58% 29.77 in 6.2 mi WSW 27.6 mph - N/A   Scattered Clouds
3:00 PM 55.4 °F - 41.0 °F 58% 29.77 in 6.2 mi WSW 21.9 mph - N/A   Scattered Clouds
3:30 PM 57.2 °F - 37.4 °F 48% 29.77 in 6.2 mi WSW 23.0 mph - N/A   Scattered Clouds
4:00 PM 57.2 °F - 39.2 °F 51% 29.77 in 6.2 mi West 19.6 mph - N/A   Partly Cloudy
4:30 PM 55.4 °F - 39.2 °F 54% 29.74 in 6.2 mi WSW 20.7 mph - N/A   Partly Cloudy
5:00 PM 55.4 °F - 42.8 °F 63% 29.74 in 6.2 mi WSW 16.1 mph - N/A   Scattered Clouds
5:30 PM 55.4 °F - 42.8 °F 63% 29.71 in 6.2 mi WSW 15.0 mph - N/A   Scattered Clouds
6:00 PM 55.4 °F - 42.8 °F 63% 29.71 in 6.2 mi SW 11.5 mph - N/A   Scattered Clouds
6:30 PM 55.4 °F - 44.6 °F 67% 29.68 in 6.2 mi SW 15.0 mph - N/A   Scattered Clouds
7:00 PM 54 °F - 44 °F 59% 29.69 in 9 mi SW 17.3 mph - - Rain Light Drizzle
7:00 PM 55.4 °F - 46.4 °F 72% 29.68 in 6.2 mi SW 12.7 mph 25.3 mph N/A   Scattered Clouds
7:30 PM 57.2 °F - 48.2 °F 72% 29.68 in 6.2 mi SSW 16.1 mph - N/A   Scattered Clouds
8:00 PM 53.6 °F - 44.6 °F 72% 29.65 in 6.2 mi SW 24.2 mph 35.7 mph N/A   Scattered Clouds
8:30 PM 50.0 °F - 44.6 °F 82% 29.65 in 6.2 mi WSW 39.1 mph 52.9 mph N/A Rain Light Rain
9:00 PM 50.0 °F - 44.6 °F 82% 29.62 in 6.2 mi West 28.8 mph 42.6 mph N/A Rain Rain Showers
9:30 PM 50.0 °F - 42.8 °F 76% 29.59 in 6.2 mi South 5.8 mph - N/A Rain Light Rain
10:00 PM 51.8 °F - 44.6 °F 76% 29.59 in 6.2 mi WSW 17.3 mph - N/A Rain Light Rain
10:30 PM 51.8 °F - 42.8 °F 71% 29.59 in 6.2 mi WSW 26.5 mph 38.0 mph N/A   Overcast
11:00 PM 51.8 °F - 39.2 °F 62% 29.56 in 6.2 mi WSW 31.1 mph 43.7 mph N/A   Overcast
11:30 PM 50.0 °F - 42.8 °F 76% 29.56 in 6.2 mi WSW 31.1 mph 43.7 mph N/A   Mostly Cloudy
11:49 PM 48.2 °F - 44.6 °F 87% 29.53 in 6.2 mi WSW 40.3 mph 58.7 mph N/A Rain , Thunderstorm Thunderstorms and Rain